Weather in Novoanninsky

Russia / Volgograd Oblast     50°31′46″N   42°40′00″E
temp.,
°C
wind,
m/s
gust,
m/s
humid.,
%
clouds,
%
prec.,
mm/h
press.,
hPa
HPBL,
m
12 august, fri
fri1200:00+23ene614557 0.0 1018377
03:00+20ene4106859 0.0 1019191
06:00+22ene5116215 0.0 1019283
09:00+29e68378 0.0 1019829
12:00+31ese573197 0.0 10191252
15:00+35e652420 0.0 10183071
18:00+33ene682917 0.0 10171000
21:00+26e411422 0.0 1019211
13 august, sat
sat1300:00+25e513472 0.0 1019267
03:00+23ese411485 0.0 1019227
06:00+22e411494 0.0 1019246
09:00+31ese67295 0.0 1019797
12:00+35ese55220 0.0 10172468
15:00+35e65211 0.0 10163161
18:00+33e67250 0.0 10161047
21:00+27ese512350 0.0 1016228
14 august, sun
sun1400:00+24ese410410 0.0 1016164
03:00+22ese37506 0.1 1016119
06:00+22e37493 0.1 1016156
09:00+30ese57294 0.1 1016938
12:00+33e67252 0.0 10152558
15:00+33e76223 0.0 10142736
18:00+31e67225 0.0 10141213
21:00+24e49325 0.0 1015132
15 august, mon
mon1500:00+21ene411413 0.0 1015183
03:00+20ene411503 0.0 1015186
06:00+20ene512555 0.0 1016270
09:00+28e79340 0.0 1015775
12:00+33e88235 0.0 10152052
15:00+33e77223 0.0 10152315
18:00+31e67265 0.0 10151595
21:00+24e513345 0.0 1017270
16 august, tue
tue1600:00+23e715417 0.0 1017385
03:00+21e514425 0.0 1017343
06:00+20ene513456 0.0 1017347
09:00+27e7103488 0.0 1017772
12:00+32e772326 0.0 10161643
15:00+34e8821100 0.0 10152073
18:00+32e7923100 0.0 1015974
21:00+28e81530100 0.0 1015513